OYCAM ESGG-EKCH

Flight info

Callsign OYCAM
Flight time N/A
Altitude 21000
Route TOPLA L996 ERNOV
Aircraft SF50/L-SDGRWY/L

Departure

Time N/A
Airport Göteborg Landvetter Airport (ESGG)

Arrival

Time 2026-04-24 19:26
Airport Copenhagen Kastrup Airport (EKCH)
Time Latitude Longitude Altitude Speed Heading
2026-04-24 18:54 57.20846 12.33195 15009 ft 302 kts 178°
2026-04-24 18:55 57.17394 12.33522 15246 ft 289 kts 178°
2026-04-24 18:55 57.15475 12.33684 15882 ft 264 kts 178°
2026-04-24 18:55 57.13686 12.33842 16515 ft 250 kts 177°
2026-04-24 18:56 57.12009 12.34230 17151 ft 238 kts 172°
2026-04-24 18:56 57.10396 12.34647 17789 ft 229 kts 173°
2026-04-24 18:56 57.08841 12.35032 18424 ft 222 kts 173°
2026-04-24 18:56 57.06857 12.35527 19272 ft 212 kts 173°
2026-04-24 18:57 57.05422 12.35883 19904 ft 205 kts 173°
2026-04-24 18:57 57.04478 12.36118 20334 ft 199 kts 173°
2026-04-24 18:57 57.03136 12.36455 20939 ft 194 kts 173°
2026-04-24 18:57 57.01712 12.36806 21001 ft 218 kts 173°
2026-04-24 18:58 57.00141 12.37199 21010 ft 238 kts 173°
2026-04-24 18:58 56.98448 12.37618 21009 ft 252 kts 173°
2026-04-24 18:58 56.96668 12.38056 21009 ft 263 kts 173°
2026-04-24 18:58 56.94831 12.38513 21010 ft 271 kts 173°
2026-04-24 18:59 56.92934 12.38979 21008 ft 278 kts 173°
2026-04-24 18:59 56.90994 12.39459 21010 ft 286 kts 173°
2026-04-24 18:59 56.88995 12.39951 21009 ft 293 kts 173°
2026-04-24 18:59 56.86959 12.40454 21010 ft 298 kts 173°
2026-04-24 19:00 56.84889 12.40966 21010 ft 302 kts 173°
2026-04-24 19:00 56.82792 12.41479 21010 ft 305 kts 173°
2026-04-24 19:00 56.80681 12.41999 21009 ft 307 kts 173°
2026-04-24 19:00 56.78560 12.42520 21010 ft 308 kts 173°
2026-04-24 19:01 56.76430 12.43040 21009 ft 309 kts 173°
2026-04-24 19:01 56.74294 12.43560 21010 ft 310 kts 173°
2026-04-24 19:01 56.72154 12.44083 21010 ft 311 kts 173°
2026-04-24 19:01 56.70005 12.44608 21009 ft 311 kts 173°
2026-04-24 19:02 56.67855 12.45131 21009 ft 312 kts 173°
2026-04-24 19:02 56.65713 12.45653 20781 ft 304 kts 173°
2026-04-24 19:02 56.63688 12.46149 20479 ft 285 kts 173°
2026-04-24 19:02 56.61779 12.46611 20171 ft 269 kts 173°
2026-04-24 19:03 56.59992 12.47045 19866 ft 256 kts 173°
2026-04-24 19:03 56.58259 12.47466 19560 ft 247 kts 173°
2026-04-24 19:03 56.56576 12.47872 19256 ft 241 kts 173°
2026-04-24 19:03 56.54927 12.48273 18954 ft 238 kts 173°
2026-04-24 19:04 56.53298 12.48666 18653 ft 235 kts 173°
2026-04-24 19:04 56.51676 12.49058 18337 ft 234 kts 173°
2026-04-24 19:04 56.50047 12.49453 17890 ft 238 kts 173°
2026-04-24 19:04 56.48397 12.49852 17443 ft 240 kts 173°
2026-04-24 19:05 56.46735 12.50254 16996 ft 241 kts 173°
2026-04-24 19:05 56.45064 12.50652 16547 ft 242 kts 173°
2026-04-24 19:05 56.43395 12.51055 16097 ft 242 kts 173°
2026-04-24 19:05 56.41725 12.51454 15647 ft 242 kts 173°
2026-04-24 19:06 56.40058 12.51854 15199 ft 242 kts 173°
2026-04-24 19:06 56.38394 12.52250 14751 ft 241 kts 173°
2026-04-24 19:06 56.36733 12.52647 14303 ft 241 kts 173°
2026-04-24 19:06 56.35081 12.53041 13853 ft 238 kts 173°
2026-04-24 19:07 56.33445 12.53429 13403 ft 236 kts 173°
2026-04-24 19:07 56.31817 12.53819 12953 ft 235 kts 173°
2026-04-24 19:07 56.30198 12.54202 12503 ft 235 kts 173°
2026-04-24 19:07 56.28581 12.54587 12055 ft 234 kts 173°
2026-04-24 19:08 56.26966 12.54972 11606 ft 234 kts 173°
2026-04-24 19:08 56.25353 12.55353 11156 ft 233 kts 173°
2026-04-24 19:08 56.23742 12.55737 10703 ft 240 kts 173°
2026-04-24 19:08 56.21993 12.56152 10279 ft 255 kts 173°
2026-04-24 19:09 56.20279 12.56557 10204 ft 239 kts 173°
2026-04-24 19:09 56.18667 12.56940 10197 ft 229 kts 173°
2026-04-24 19:09 56.17111 12.57229 10189 ft 221 kts 180°
2026-04-24 19:09 56.15625 12.56731 10193 ft 216 kts 197°
2026-04-24 19:10 56.14190 12.55982 10155 ft 215 kts 196°
2026-04-24 19:10 56.12730 12.55269 10014 ft 219 kts 196°
2026-04-24 19:10 56.11274 12.54541 10006 ft 216 kts 196°
2026-04-24 19:10 56.09834 12.53819 10008 ft 214 kts 196°
2026-04-24 19:11 56.08405 12.53102 10003 ft 213 kts 196°
2026-04-24 19:11 56.06983 12.52388 10002 ft 212 kts 196°
2026-04-24 19:11 56.05537 12.51667 9997 ft 232 kts 196°
2026-04-24 19:11 56.03863 12.50825 10010 ft 264 kts 196°
2026-04-24 19:12 56.02027 12.49913 10008 ft 282 kts 196°
2026-04-24 19:12 56.00099 12.48953 10010 ft 287 kts 196°
2026-04-24 19:12 55.98306 12.48061 9994 ft 263 kts 196°
2026-04-24 19:12 55.96534 12.47178 9993 ft 262 kts 196°
2026-04-24 19:13 55.95354 12.46589 9992 ft 261 kts 196°
2026-04-24 19:13 55.93036 12.45438 9991 ft 261 kts 196°
2026-04-24 19:13 55.91287 12.44567 9991 ft 260 kts 196°
2026-04-24 19:13 55.89544 12.43704 9991 ft 260 kts 196°
2026-04-24 19:14 55.87803 12.42840 9991 ft 260 kts 196°
2026-04-24 19:14 55.86060 12.41976 9991 ft 260 kts 196°
2026-04-24 19:14 55.84316 12.41117 9991 ft 260 kts 196°
2026-04-24 19:14 55.82578 12.40257 9991 ft 260 kts 196°
2026-04-24 19:15 55.80827 12.39391 9857 ft 264 kts 196°
2026-04-24 19:15 55.79035 12.38510 9609 ft 270 kts 196°
2026-04-24 19:15 55.77227 12.37620 9361 ft 267 kts 196°
2026-04-24 19:15 55.75446 12.36736 9110 ft 264 kts 196°
2026-04-24 19:16 55.71915 12.34991 8452 ft 266 kts 196°
2026-04-24 19:16 55.70124 12.34112 8031 ft 268 kts 196°
2026-04-24 19:16 55.68367 12.33247 8003 ft 256 kts 196°
2026-04-24 19:17 55.66670 12.32418 8000 ft 250 kts 196°
2026-04-24 19:17 55.65003 12.31599 7998 ft 247 kts 196°
2026-04-24 19:17 55.63348 12.30793 7913 ft 249 kts 196°
2026-04-24 19:17 55.61631 12.30084 7454 ft 259 kts 187°
2026-04-24 19:18 55.59807 12.30288 6937 ft 266 kts 169°
2026-04-24 19:18 55.58149 12.31312 6256 ft 234 kts 159°
2026-04-24 19:18 55.56639 12.31767 5539 ft 213 kts 181°
2026-04-24 19:18 55.55206 12.31609 4972 ft 198 kts 185°
2026-04-24 19:19 55.53873 12.31433 4517 ft 187 kts 185°
2026-04-24 19:19 55.52638 12.31732 4044 ft 181 kts 152°
2026-04-24 19:19 55.51800 12.33324 3584 ft 177 kts 124°
2026-04-24 19:19 55.51112 12.35112 3141 ft 175 kts 125°
2026-04-24 19:20 55.50433 12.36848 2796 ft 169 kts 125°
2026-04-24 19:20 55.49777 12.38528 2472 ft 164 kts 125°
2026-04-24 19:20 55.49233 12.40254 2129 ft 161 kts 102°
2026-04-24 19:20 55.49331 12.42168 1896 ft 152 kts 82°
2026-04-24 19:21 55.49501 12.43911 1851 ft 136 kts 78°
2026-04-24 19:21 55.49740 12.45339 1898 ft 113 kts 63°
2026-04-24 19:21 55.50190 12.46409 1868 ft 104 kts 47°
2026-04-24 19:21 55.50711 12.47283 1813 ft 109 kts 41°
2026-04-24 19:22 55.51078 12.47873 1786 ft 103 kts 41°
2026-04-24 19:22 55.51813 12.49015 1808 ft 119 kts 41°
2026-04-24 19:22 55.52464 12.49983 1889 ft 126 kts 39°
2026-04-24 19:22 55.53159 12.51000 1805 ft 129 kts 39°
2026-04-24 19:23 55.53813 12.51975 1581 ft 120 kts 41°
2026-04-24 19:23 55.54419 12.52929 1417 ft 114 kts 41°
2026-04-24 19:23 55.55005 12.53850 1246 ft 113 kts 40°
2026-04-24 19:23 55.55601 12.54770 1021 ft 115 kts 40°
2026-04-24 19:24 55.56203 12.55688 822 ft 114 kts 41°
2026-04-24 19:24 55.56795 12.56596 682 ft 110 kts 40°
2026-04-24 19:24 55.57365 12.57478 558 ft 109 kts 41°
2026-04-24 19:24 55.57937 12.58366 399 ft 110 kts 41°
2026-04-24 19:25 55.58513 12.59265 240 ft 110 kts 40°
2026-04-24 19:25 55.59085 12.60145 111 ft 108 kts 40°
2026-04-24 19:25 55.59650 12.61004 25 ft 101 kts 40°
2026-04-24 19:25 55.60088 12.61678 17 ft 67 kts 43°
2026-04-24 19:26 55.60336 12.62068 11 ft 28 kts 37°
2026-04-24 19:26 55.60473 12.62249 14 ft 21 kts 26°
2026-04-24 19:26 55.60616 12.62337 19 ft 21 kts 11°
2026-04-24 19:26 55.60638 12.62344 19 ft 0 kts 10°
2026-04-24 19:27 55.60640 12.62345 19 ft 4 kts 10°
2026-04-24 19:27 55.60769 12.62397 16 ft 26 kts 20°
2026-04-24 19:27 55.60937 12.62628 13 ft 35 kts 40°
2026-04-24 19:28 55.61084 12.62852 13 ft 26 kts 40°
2026-04-24 19:28 55.61222 12.63067 15 ft 26 kts 41°
2026-04-24 19:28 55.61351 12.63259 15 ft 23 kts 38°
2026-04-24 19:28 55.61460 12.63435 13 ft 20 kts 43°
2026-04-24 19:29 55.61661 12.63748 12 ft 20 kts 44°
2026-04-24 19:29 55.61762 12.63905 15 ft 19 kts 40°
2026-04-24 19:29 55.61870 12.64064 15 ft 21 kts 36°
2026-04-24 19:30 55.62001 12.64170 13 ft 21 kts 19°
2026-04-24 19:30 55.62097 12.64250 12 ft 11 kts 41°
2026-04-24 19:30 55.62157 12.64312 10 ft 0 kts 20°
2026-04-24 19:30 55.62164 12.64316 10 ft 4 kts 22°
2026-04-24 19:31 55.62219 12.64360 10 ft 13 kts 18°
2026-04-24 19:31 55.62295 12.64239 10 ft 21 kts 303°
2026-04-24 19:31 55.62388 12.63995 12 ft 24 kts 303°
2026-04-24 19:31 55.62524 12.63778 17 ft 28 kts 351°
2026-04-24 19:32 55.62659 12.63786 18 ft 16 kts 312°
2026-04-24 19:32 55.62668 12.63716 18 ft 2 kts 272°
2026-04-24 19:32 55.62672 12.63605 17 ft 15 kts 272°
2026-04-24 19:32 55.62708 12.63376 12 ft 23 kts 304°
2026-04-24 19:33 55.62777 12.63235 14 ft 7 kts 333°
2026-04-24 19:33 55.62813 12.63231 13 ft 4 kts
2026-04-24 19:33 55.62828 12.63234 14 ft 0 kts